Salina, KS

7:52 PM CDT on July 25, 2017 (GMT -0500)
Salina Municipal

Weather History for KSLN - March, 2013

Change the Weather History Date:

Thursday, March 7, 2013

  Actual Average Record
Temperature  
Mean Temperature 48 °F 42 °F  
Max Temperature 65 °F 54 °F 78 °F (2016)
Min Temperature 31 °F 31 °F -4 °F (1920)
Degree Days  
Heating Degree Days 17 23  
Month to date heating degree days 207 166  
Since 1 July heating degree days 3829 4007  
Cooling Degree Days 0 0  
Month to date cooling degree days 0 0  
Year to date cooling degree days 0 0  
Moisture  
Dew Point 27 °F    
Average Humidity 52    
Maximum Humidity 78    
Minimum Humidity 26    
Precipitation  
Precipitation 0.00 in 0.07 in 0.43 in (1969)
Month to date precipitation 0.03 0.43  
Year to date precipitation 3.30 2.23  
Sea Level Pressure  
Sea Level Pressure 30.09 in    
Wind  
Wind Speed 13 mph (SE)    
Max Wind Speed 23 mph    
Max Gust Speed 29 mph    
Visibility 10 miles    
Events      
T = Trace of Precipitation, MM = Missing Value Source: NWS Daily Summary

Daily Weather History Graph

Daily Weather History Graph

Search for Another Location

Airport or City:

Trip Planner

Search our weather history database for the weather conditions in past years. The results will help you decide how hot, cold, wet, or windy it might be!

Date:

Astronomy

Mar. 07, 2013 Rise Set
Actual Time 6:53 AM CST 6:29 PM CST
Civil Twilight 6:27 AM CST 6:56 PM CST
Nautical Twilight 5:56 AM CST 7:27 PM CST
Astronomical Twilight 5:25 AM CST 7:58 PM CST
Moon 3:52 AM CST (3/7) 2:21 PM CST (3/7)
Length of Visible Light 12h 29m
Length of Day
11h 36m
Waning Crescent, 20% of the Moon is Illuminated
Mar 7
Waning Crescent
Mar 11
New
Mar 19
First Quarter
Mar 27
Full
Apr 2
Last Quarter

Hourly Weather History & Observations

Time (CST) Temp. Windchill Dew Point Humidity Pressure Visibility Wind Dir Wind Speed Gust Speed Precip Events Conditions
12:53 AM 33.1 °F 25.5 °F 23.0 °F 66% 30.19 in 10.0 mi SE 9.2 mph - N/A   Clear
1:53 AM 32.0 °F 23.6 °F 23.0 °F 69% 30.17 in 10.0 mi SE 10.4 mph - N/A   Clear
2:53 AM 32.0 °F 23.0 °F 24.1 °F 73% 30.15 in 10.0 mi SE 11.5 mph - N/A   Clear
3:53 AM 32.0 °F 23.6 °F 24.1 °F 73% 30.14 in 10.0 mi ESE 10.4 mph - N/A   Clear
4:53 AM 30.9 °F 21.2 °F 24.1 °F 76% 30.12 in 10.0 mi SE 12.7 mph - N/A   Clear
5:53 AM 30.9 °F 21.2 °F 24.1 °F 76% 30.12 in 10.0 mi SE 12.7 mph - N/A   Clear
6:53 AM 30.9 °F 21.2 °F 24.1 °F 76% 30.12 in 10.0 mi SE 12.7 mph - N/A   Clear
7:53 AM 34.0 °F 25.0 °F 24.1 °F 67% 30.12 in 9.0 mi ESE 12.7 mph - N/A   Clear
8:53 AM 39.9 °F 31.8 °F 24.1 °F 53% 30.13 in 10.0 mi SE 15.0 mph - N/A   Clear
9:53 AM 46.9 °F - 25.0 °F 42% 30.12 in 10.0 mi SSE 15.0 mph - N/A   Clear
10:53 AM 52.0 °F - 25.0 °F 35% 30.12 in 10.0 mi South 16.1 mph 25.3 mph N/A   Clear
11:53 AM 57.0 °F - 26.1 °F 30% 30.09 in 10.0 mi SSE 19.6 mph 26.5 mph N/A   Clear
12:53 PM 60.1 °F - 28.0 °F 30% 30.06 in 10.0 mi SSE 21.9 mph - N/A   Clear
1:53 PM 63.0 °F - 28.9 °F 28% 30.04 in 10.0 mi South 17.3 mph 27.6 mph N/A   Clear
2:53 PM 63.0 °F - 28.9 °F 28% 30.02 in 10.0 mi South 16.1 mph 26.5 mph N/A   Clear
3:53 PM 64.0 °F - 28.9 °F 27% 30.02 in 10.0 mi SSE 18.4 mph 23.0 mph N/A   Clear
4:53 PM 64.0 °F - 28.9 °F 27% 30.01 in 10.0 mi South 17.3 mph - N/A   Clear
5:53 PM 61.0 °F - 28.9 °F 30% 30.01 in 10.0 mi SE 11.5 mph - N/A   Clear
6:53 PM 55.0 °F - 28.9 °F 37% 30.04 in 10.0 mi ESE 5.8 mph - N/A   Clear
7:53 PM 52.0 °F - 30.0 °F 43% 30.04 in 10.0 mi ESE 8.1 mph - N/A   Clear
8:53 PM 50.0 °F - 30.0 °F 46% 30.05 in 10.0 mi ESE 8.1 mph - N/A   Clear
9:53 PM 48.0 °F - 30.0 °F 50% 30.06 in 10.0 mi ESE 9.2 mph - N/A   Clear
10:53 PM 46.0 °F 41.9 °F 30.0 °F 54% 30.06 in 10.0 mi ESE 8.1 mph - N/A   Clear
11:53 PM 44.1 °F 40.1 °F 30.0 °F 58% 30.06 in 10.0 mi ESE 6.9 mph - N/A   Clear